{"data":{"norad_id":63455,"intl_designator":"2025-069Y","name":"STARLINK-33761","alt_names":[],"object_type":"PAYLOAD","status":"ACTIVE","operator":null,"country":"US","launch_date":"2025-04-04","launch_site_code":"AFWTR","launch_vehicle":null,"mission":null,"orbit_class":"UNKNOWN","rcs_meters":null,"size_class":null,"mass_kg":null,"dimensions":null,"purposes":["comms"],"wikipedia_slug":null,"has_3d_model":false,"image_url":null,"decayed_at":null,"tle_current":{"epoch":"2026-05-24T17:25:20.900640Z","epoch_age_seconds":98814,"freshness":"FRESH","line1":"1 63455U 25069Y   26144.72593635  .00020777  00000+0  48538-3 0  9995","line2":"2 63455  53.1591 146.6217 0001294  96.9225 263.1928 15.42173146 65089","mean_motion":15.42173146,"eccentricity":0.0001294,"inclination_deg":53.1591,"raan_deg":146.6217,"arg_perigee_deg":96.9225,"mean_anomaly_deg":263.1928,"bstar":0.00048538,"rev_number":6508,"period_min":93.374729273103,"perigee_km":438.81468071537,"apogee_km":440.57913613087,"semimajor_km":6817.8339084231,"source":"CELESTRAK","updated_at":"2026-05-25T13:38:20.002879Z"}}}